This demonstration page uses our WeatherBlox Daily Observations layout. Learn more.

Left ArrowRight Arrow

39.08367, -84.50855

Hourly Observations for May 10, 2020

Temp ( °F °C ) Dew Point ( °F °C ) Humidity (%) Winds ( mph kmh ) Pressure ( in mb ) Visibility ( mi km ) Precip ( " mm )
12:53 am 00:53 Clear 38 3.3 33 0.6 83 83 Calm 30.24 1024 10 16.0934 0 0
1:53 am 01:53 Clear 37 2.8 34 1.1 89 89 Calm 30.23 1024 10 16.0934 0 0
2:53 am 02:53 Clear 37 2.8 35 1.7 93 93 Calm 30.2 1023 8 12.87472 0 0
3:53 am 03:53 Clear 37 2.8 35 1.7 93 93 Calm 30.18 1022 8 12.87472 0 0
4:53 am 04:53 Clear 38 3.3 36 2.2 93 93 Calm 30.17 1022 9 14.48406 0 0
5:53 am 05:53 Mostly Clear 38 3.3 36 2.2 93 93 Calm 30.16 1022 9 14.48406 0 0
6:53 am 06:53 Mostly Cloudy 38 3.3 36 2.2 93 93 WSW 3 6 30.17 1022 10 16.0934 0 0
7:53 am 07:53 Mostly Cloudy 42 5.6 37 2.8 82 82 Calm 30.17 1022 10 16.0934 0 0
8:53 am 08:53 Partly Cloudy 45 7.2 36 2.2 71 71 S 8 13 30.16 1021 10 16.0934 0 0
9:53 am 09:53 Sunny 54 12.2 36 2.2 51 51 S 12 19 30.13 1020 10 16.0934 0 0
10:53 am 10:53 Mostly Cloudy 58 14.4 34 1.1 41 41 SW 15 24 30.11 1020 10 16.0934 0 0
11:53 am 11:53 Cloudy with Light Rain 55 12.8 38 3.3 53 53 WSW 17 28 30.11 1020 10 16.0934 0.001 0.001
12:53 pm 12:53 Mostly Cloudy 60 15.6 40 4.4 47 47 S 15 24 30.06 1018 10 16.0934 0.001 0.001
1:53 pm 13:53 Partly Cloudy 64 17.8 40 4.4 41 41 SSW 23 37 30.02 1017 10 16.0934 0 0
2:53 pm 14:53 Partly Cloudy 66 18.9 42 5.6 42 42 SSW 25 41 29.96 1014 10 16.0934 0 0
3:33 pm 15:33 Mostly Cloudy with Heavy Thunderstorms 60 15.6 42 5.6 52 52 SW 20 31 29.96 1014 7 11.26538 0.001 0.001
3:46 pm 15:46 Mostly Cloudy with Heavy Thunderstorms 58 14.4 47 8.3 67 67 SW 32 52 29.99 1016 7 11.26538 0.01 0.254
3:53 pm 15:53 Cloudy with Nearby Thunderstorms 58 14.4 46 7.8 65 65 SW 22 35 29.99 1016 10 16.0934 0.01 0.254
4:53 pm 16:53 Mostly Cloudy with Nearby Thunderstorms 56 13.3 45 7.2 67 67 WSW 12 19 29.97 1015 10 16.0934 0.01 0.254
5:53 pm 17:53 Partly Cloudy 61 16.1 47 8.3 60 60 W 8 13 29.96 1015 10 16.0934 0.001 0.001
6:53 pm 18:53 Mostly Cloudy 58 14.4 37 2.8 46 46 NW 15 24 29.99 1016 10 16.0934 0 0
7:53 pm 19:53 Mostly Cloudy 55 12.8 36 2.2 49 49 WNW 10 17 30.03 1017 10 16.0934 0 0
8:53 pm 20:53 Cloudy 52 11.1 35 1.7 53 53 W 13 20 30.05 1018 10 16.0934 0 0
9:53 pm 21:53 Partly Cloudy 49 9.4 34 1.1 56 56 W 15 24 30.05 1018 10 16.0934 0 0
10:53 pm 22:53 Cloudy 49 9.4 35 1.7 59 59 WSW 14 22 30.06 1018 10 16.0934 0 0
11:53 pm 23:53 Mostly Cloudy 47 8.3 35 1.7 63 63 W 20 31 30.07 1018 10 16.0934 0.001 0.001

Powered by AerisWeather